| time (UTC) | temp F | wind direction | speed MPH | gust MPH | rain 1hr in | rain 24hr in | rain mn in | humidity % | barometer mb |
| 20260507070324 | 58 | 0.0 | 0.0 | 0.00 | 0.00 | 0.00 | 93 | -0.1 | |
| 20260507065339 | 58 | 0.0 | 0.0 | 0.00 | 0.00 | 0.00 | 92 | -0.1 | |
| 20260507064832 | 58 | 0.0 | 0.0 | 0.00 | 0.00 | 0.00 | 92 | -0.1 | |
| 20260507063823 | 58 | 0.0 | 0.0 | 0.00 | 0.00 | 0.00 | 92 | -0.1 | |
| 20260507062322 | 58 | 0.0 | 0.0 | 0.00 | 0.00 | 0.00 | 92 | -0.1 | |
| 20260507061821 | 58 | 0.0 | 0.0 | 0.00 | 0.00 | 0.00 | 92 | -0.1 | |
| 20260507060826 | 58 | 0.0 | 0.0 | 0.00 | 0.00 | 0.00 | 91 | -0.1 | |
| 20260507060333 | 59 | 0.0 | 0.0 | 0.00 | 0.00 | 0.00 | 91 | -0.1 | |
| 20260507055841 | 59 | 0.0 | 0.0 | 0.00 | 0.00 | 0.00 | 91 | -0.1 | |
| 20260507055324 | 59 | 0.0 | 0.0 | 0.00 | 0.00 | 0.00 | 91 | -0.1 | |
| 20260507054824 | 59 | 0.0 | 0.0 | 0.00 | 0.00 | 0.00 | 91 | -0.1 | |
| 20260507054331 | 59 | 0.0 | 0.0 | 0.00 | 0.00 | 0.00 | 90 | -0.1 | |
| 20260507053839 | 59 | 0.0 | 0.0 | 0.00 | 0.00 | 0.00 | 91 | -0.1 | |
| 20260507052340 | 59 | 0.0 | 0.0 | 0.00 | 0.00 | 0.00 | 90 | -0.1 | |
| 20260507051840 | 60 | 0.0 | 0.0 | 0.00 | 0.00 | 0.00 | 90 | -0.1 | |
| 20260507051325 | 60 | 0.0 | 0.0 | 0.00 | 0.00 | 0.00 | 90 | -0.1 | |
| 20260507050831 | 60 | 0.0 | 0.0 | 0.00 | 0.00 | 0.00 | 90 | -0.1 | |
| 20260507045328 | 60 | 0.0 | 0.0 | 0.00 | 0.00 | 0.00 | 90 | -0.1 | |
| 20260507044825 | 60 | 0.0 | 0.0 | 0.00 | 0.00 | 0.00 | 90 | -0.1 | |
| 20260507044332 | 60 | 0.0 | 0.0 | 0.00 | 0.00 | 0.00 | 91 | -0.1 | |
| 20260507042835 | 60 | 0.0 | 0.0 | 0.00 | 0.00 | 0.00 | 91 | -0.1 | |
| 20260507042321 | 60 | 0.0 | 0.0 | 0.00 | 0.00 | 0.00 | 91 | -0.1 | |
| 20260507040323 | 61 | 0.0 | 0.0 | 0.00 | 0.00 | 0.00 | 91 | -0.1 | |
| 20260507035827 | 61 | 0.0 | 0.0 | 0.00 | 0.00 | 0.00 | 90 | -0.1 | |
| 20260507035331 | 61 | 0.0 | 0.0 | 0.00 | 0.00 | 0.00 | 90 | -0.1 | |
| 20260507033338 | 61 | 0.0 | 0.0 | 0.00 | 0.00 | 0.00 | 91 | -0.1 | |
| 20260507032823 | 61 | 0.0 | 0.0 | 0.00 | 0.00 | 0.00 | 91 | -0.1 | |
| 20260507031324 | 61 | 0.0 | 0.0 | 0.00 | 0.00 | 0.00 | 90 | -0.1 | |
| 20260507030840 | 62 | 0.0 | 0.0 | 0.00 | 0.00 | 0.00 | 89 | -0.1 | |
| 20260507025823 | 62 | 0.0 | 0.0 | 0.00 | 0.00 | 0.00 | 89 | -0.1 | |
| 20260507024835 | 62 | 0.0 | 0.0 | 0.00 | 0.00 | 0.00 | 88 | -0.1 | |
| 20260507024323 | 62 | 0.0 | 0.0 | 0.00 | 0.00 | 0.00 | 88 | -0.1 | |
| 20260507023337 | 62 | 291 | 2.0 | 7.0 | 0.00 | 0.00 | 0.00 | 87 | -0.1 |
| 20260507020835 | 63 | 300 | 3.0 | 8.0 | 0.00 | 0.00 | 0.00 | 86 | -0.1 |
| 20260507015827 | 64 | 306 | 4.0 | 9.0 | 0.00 | 0.00 | 0.00 | 84 | -0.1 |
| 20260507015333 | 64 | 275 | 5.0 | 9.0 | 0.00 | 0.00 | 0.00 | 84 | -0.1 |
| 20260507014336 | 64 | 303 | 8.0 | 10.0 | 0.00 | 0.00 | 0.00 | 83 | -0.1 |
| 20260507013822 | 65 | 284 | 6.0 | 10.0 | 0.00 | 0.00 | 0.00 | 82 | -0.1 |
| 20260507013340 | 65 | 263 | 5.0 | 10.0 | 0.00 | 0.00 | 0.00 | 80 | -0.1 |
| 20260507011327 | 66 | 279 | 5.0 | 10.0 | 0.00 | 0.00 | 0.00 | 78 | -0.1 |
| 20260507010833 | 67 | 303 | 6.0 | 11.0 | 0.00 | 0.00 | 0.00 | 77 | -0.1 |
| 20260507005338 | 68 | 281 | 5.0 | 10.0 | 0.00 | 0.00 | 0.00 | 76 | -0.1 |
| 20260507003821 | 68 | 249 | 4.0 | 13.0 | 0.00 | 0.00 | 0.00 | 78 | -0.1 |
| 20260507003329 | 68 | 289 | 9.0 | 13.0 | 0.00 | 0.00 | 0.00 | 76 | -0.1 |
| 20260507002324 | 69 | 280 | 10.0 | 13.0 | 0.00 | 0.00 | 0.00 | 75 | -0.1 |
| 20260507000826 | 69 | 281 | 5.0 | 13.0 | 0.00 | 0.00 | 0.00 | 76 | -0.1 |
| 20260507000335 | 68 | 234 | 5.0 | 12.0 | 0.00 | 0.00 | 0.00 | 77 | -0.1 |
| 20260506235830 | 68 | 267 | 6.0 | 14.0 | 0.00 | 0.00 | 0.00 | 76 | -0.1 |
| 20260506235322 | 68 | 285 | 8.0 | 14.0 | 0.00 | 0.00 | 0.00 | 77 | -0.1 |
| 20260506234822 | 68 | 279 | 4.0 | 12.0 | 0.00 | 0.00 | 0.00 | 76 | -0.1 |
| 20260506233836 | 69 | 248 | 7.0 | 13.0 | 0.00 | 0.00 | 0.00 | 77 | -0.1 |
| 20260506233334 | 69 | 270 | 6.0 | 14.0 | 0.00 | 0.00 | 0.00 | 75 | -0.1 |
| 20260506232823 | 69 | 255 | 8.0 | 12.0 | 0.00 | 0.00 | 0.00 | 75 | -0.1 |
| 20260506231336 | 68 | 267 | 7.0 | 14.0 | 0.00 | 0.00 | 0.00 | 75 | -0.1 |
| 20260506230324 | 68 | 283 | 8.0 | 12.0 | 0.00 | 0.00 | 0.00 | 75 | -0.1 |
| 20260506225829 | 68 | 278 | 7.0 | 12.0 | 0.00 | 0.00 | 0.00 | 75 | -0.1 |
| 20260506225335 | 68 | 303 | 6.0 | 14.0 | 0.00 | 0.00 | 0.00 | 76 | -0.1 |
| 20260506223329 | 68 | 214 | 7.0 | 17.0 | 0.00 | 0.00 | 0.00 | 75 | -0.1 |
| 20260506222830 | 68 | 337 | 8.0 | 17.0 | 0.00 | 0.00 | 0.00 | 76 | -0.1 |
| 20260506221837 | 68 | 265 | 10.0 | 15.0 | 0.00 | 0.00 | 0.00 | 74 | -0.1 |
| 20260506221324 | 68 | 246 | 8.0 | 17.0 | 0.00 | 0.00 | 0.00 | 77 | -0.1 |
| 20260506215824 | 69 | 286 | 9.0 | 16.0 | 0.00 | 0.00 | 0.00 | 74 | -0.1 |
| 20260506214839 | 69 | 292 | 7.0 | 14.0 | 0.00 | 0.00 | 0.00 | 75 | -0.1 |
| 20260506213833 | 69 | 252 | 7.0 | 15.0 | 0.00 | 0.00 | 0.00 | 75 | -0.1 |
| 20260506213339 | 69 | 281 | 6.0 | 15.0 | 0.00 | 0.00 | 0.00 | 75 | -0.1 |
| 20260506212825 | 68 | 282 | 6.0 | 15.0 | 0.00 | 0.00 | 0.00 | 74 | -0.1 |
| 20260506212330 | 69 | 299 | 8.0 | 15.0 | 0.00 | 0.00 | 0.00 | 74 | -0.1 |
| 20260506211834 | 69 | 258 | 8.0 | 14.0 | 0.00 | 0.00 | 0.00 | 72 | -0.1 |
| 20260506211322 | 69 | 288 | 8.0 | 14.0 | 0.00 | 0.00 | 0.00 | 71 | -0.1 |
| 20260506204832 | 69 | 324 | 9.0 | 17.0 | 0.00 | 0.00 | 0.00 | 73 | -0.1 |
| 20260506204336 | 69 | 288 | 7.0 | 17.0 | 0.00 | 0.00 | 0.00 | 74 | -0.1 |
| 20260506203823 | 69 | 286 | 6.0 | 17.0 | 0.00 | 0.00 | 0.00 | 73 | -0.1 |
| 20260506202820 | 68 | 286 | 4.0 | 12.0 | 0.00 | 0.00 | 0.00 | 74 | -0.1 |
| 20260506201829 | 68 | 271 | 11.0 | 15.0 | 0.00 | 0.00 | 0.00 | 71 | -0.1 |
| 20260506201335 | 68 | 302 | 10.0 | 14.0 | 0.00 | 0.00 | 0.00 | 71 | -0.1 |
| 20260506192826 | 68 | 251 | 8.0 | 13.0 | 0.00 | 0.00 | 0.00 | 73 | -0.1 |
| 20260506191828 | 68 | 267 | 6.0 | 14.0 | 0.00 | 0.00 | 0.00 | 72 | -0.1 |
| 20260506190821 | 68 | 280 | 6.0 | 14.0 | 0.00 | 0.00 | 0.00 | 72 | -0.1 |
| 20260506190331 | 68 | 236 | 6.0 | 12.0 | 0.00 | 0.00 | 0.00 | 73 | -0.1 |
| 20260506185837 | 68 | 297 | 4.0 | 12.0 | 0.00 | 0.00 | 0.00 | 73 | -0.1 |
| 20260506184819 | 68 | 273 | 6.0 | 11.0 | 0.00 | 0.00 | 0.00 | 74 | -0.1 |
| 20260506183343 | 67 | 250 | 9.0 | 14.0 | 0.00 | 0.00 | 0.00 | 75 | -0.1 |
| 20260506182337 | 67 | 303 | 3.0 | 12.0 | 0.00 | 0.00 | 0.00 | 74 | -0.1 |
| 20260506181328 | 67 | 260 | 4.0 | 12.0 | 0.00 | 0.00 | 0.00 | 74 | -0.1 |